[[{"header":{"parameterUnit":"m.s-1","parameterCategory":2,"la1":30.2991,"la2":30.254,"lo1":-89.0895,"lo2":-89.0444,"dy":0.0017,"dx":0.0017,"nx":28,"ny":28,"refTime":"2023-08-29T03:00:00:Z","depth":"0","parameterNumber":2,"parameterNumberName":"U-component_of_CURRENTS"},"data":[0,0,0,0,0,0,0,0,0,0,0,0,0,0,0,0,0,0,0,0,0,0,0,0,0,0,0,0,0,0,0,0,0,0,0,0,0,0,0,0,0,0,0,0,0,0,0,0,0,0,0,0,0,0,0,0,0,0,-0.2507,-0.2507,0,-0.2527,-0.2527,-0.2527,-0.2506,-0.2505,-0.2504,-0.2504,-0.2489,-0.2489,-0.249,0,0,0,0,0,0,0,0,0,0,0,0,0,-0.2447,-0.2448,-0.2507,-0.2507,-0.2508,-0.2527,-0.2527,-0.2527,-0.2506,-0.2505,-0.2504,-0.2504,-0.2489,-0.2489,-0.249,0,0,0,0,0,0,0,0,0,0,0,0,0,-0.2469,-0.2449,-0.2507,-0.2501,-0.2501,-0.2527,-0.2527,-0.2527,-0.2506,-0.2505,-0.2504,-0.2503,-0.2489,-0.2489,-0.249,-0.251,0,0,-0.249,-0.249,0,0,0,0,0,0,0,0,-0.2467,-0.2471,-0.2502,-0.2502,-0.2502,-0.2515,-0.2501,-0.252,-0.2506,-0.2502,-0.2504,-0.2503,-0.2497,-0.2496,-0.2499,-0.2509,-0.2508,-0.249,-0.2491,-0.2491,-0.2491,0,0,0,0,0,0,0,-0.2466,-0.247,-0.2512,-0.2502,-0.2502,-0.2497,-0.2499,-0.2504,-0.2502,-0.2502,-0.2501,-0.2507,-0.2496,-0.2499,-0.2499,-0.2508,-0.249,-0.2491,-0.2491,-0.2491,-0.2541,-0.2542,0,0,0,0,0,0,-0.247,-0.2468,-0.2512,-0.2513,-0.2485,-0.2499,-0.2501,-0.251,-0.2502,-0.2501,-0.2508,-0.2506,-0.2499,-0.2498,-0.2498,-0.2524,-0.2491,-0.2491,-0.2491,-0.254,-0.2541,-0.2542,0,0,0,0,0,0,-0.2468,-0.2474,-0.2511,-0.2493,-0.2498,-0.2501,-0.2511,-0.2511,-0.2514,-0.2508,-0.2505,-0.2512,-0.2498,-0.2498,-0.2511,-0.2523,-0.2491,-0.2491,-0.2538,-0.254,-0.2542,-0.2574,0,0,0,0,0,0,-0.2467,-0.2473,-0.2477,-0.2493,-0.2499,-0.2536,-0.2512,-0.2512,-0.252,-0.2518,-0.2511,-0.2508,-0.2498,-0.2511,-0.2511,-0.2523,-0.2491,-0.2537,-0.2539,-0.2541,-0.2572,-0.2577,-0.2581,0,0,0,0,0,-0.2465,-0.2479,-0.2477,-0.2482,-0.2506,-0.2537,-0.2539,-0.2537,-0.2522,-0.2533,-0.2526,-0.2508,-0.2524,-0.2512,-0.2512,-0.2524,-0.2536,-0.2538,-0.2541,-0.2569,-0.2576,-0.2581,0,0,0,0,0,0,-0.2454,-0.2479,-0.2477,-0.2497,-0.2519,-0.2534,-0.2542,-0.2542,-0.2546,-0.2538,-0.2525,-0.2523,-0.2541,-0.2533,-0.2519,-0.2547,-0.2527,-0.253,-0.2549,-0.2554,-0.2559,-0.2566,-0.2492,0,0,0,0,0,-0.2456,-0.2469,-0.2496,-0.251,-0.2522,-0.2532,-0.2541,-0.2545,-0.2553,-0.2553,-0.2549,-0.2546,-0.2554,-0.2553,-0.256,-0.2575,-0.2566,-0.2583,-0.2588,-0.2592,-0.26,-0.2595,-0.26,-0.2551,-0.2551,-0.2551,0,0,-0.2453,-0.2469,-0.2475,-0.2508,-0.2519,-0.2548,-0.2535,-0.2556,-0.2576,-0.2552,-0.2569,-0.2566,-0.2564,-0.2581,-0.2587,-0.2573,-0.2603,-0.2596,-0.2599,-0.2604,-0.2598,-0.2603,-0.2607,-0.2553,-0.2552,-0.2552,0,0,-0.2459,-0.2473,-0.2487,-0.2513,-0.2541,-0.2556,-0.2566,-0.2588,-0.2593,-0.2614,-0.2603,-0.2611,-0.2615,-0.2621,-0.2622,-0.2661,-0.2633,-0.2658,-0.2682,-0.2677,-0.2681,-0.2684,-0.2682,-0.2685,-0.2655,-0.2655,-0.2655,0,-0.2453,-0.248,-0.2497,-0.2525,-0.2546,-0.2564,-0.2591,-0.261,-0.2632,-0.2639,-0.2623,-0.2639,-0.2637,-0.2661,-0.2673,-0.2671,-0.2661,-0.2657,-0.2682,-0.2685,-0.2688,-0.2685,-0.2688,-0.2657,-0.2657,-0.2656,-0.2656,0,-0.2475,-0.25,-0.2515,-0.2554,-0.2581,-0.2611,-0.2645,-0.2667,-0.267,-0.268,-0.27,-0.2698,-0.2702,-0.2707,-0.27,-0.2723,-0.2708,-0.2691,-0.2664,-0.2694,-0.269,-0.2692,-0.266,-0.2659,-0.2658,-0.2658,0,0,-0.2445,-0.2516,-0.2517,-0.2543,-0.26,-0.2624,-0.2669,-0.271,-0.2732,-0.2741,-0.2761,-0.2775,-0.2761,-0.2764,-0.2756,-0.2756,-0.2768,-0.2731,-0.2729,-0.2723,-0.2756,-0.2708,-0.2706,-0.2746,-0.2746,-0.2747,-0.2747,0,-0.2453,-0.2505,-0.2541,-0.2593,-0.2625,-0.2667,-0.2706,-0.2743,-0.2766,-0.2793,-0.2793,-0.2807,-0.2787,-0.2784,-0.2783,-0.2776,-0.2774,-0.277,-0.2733,-0.2733,-0.2681,-0.2707,-0.2624,-0.2613,-0.2748,-0.2748,-0.2749,0,-0.2455,-0.2494,-0.2543,-0.2615,-0.2632,-0.2663,-0.2725,-0.2765,-0.2815,-0.2825,-0.2838,-0.2841,-0.2855,-0.2825,-0.2819,-0.2812,-0.279,-0.2778,-0.2777,-0.2723,-0.2688,-0.2605,-0.2611,-0.2583,-0.2751,-0.2751,-0.2751,0,-0.2414,-0.2491,-0.2528,-0.2555,-0.264,-0.2662,-0.2703,-0.2761,-0.2797,-0.2841,-0.286,-0.2872,-0.2874,-0.2854,-0.2829,-0.2821,-0.2816,-0.2798,-0.2737,-0.2733,-0.2652,-0.264,-0.2621,-0.2791,-0.2791,-0.2791,-0.2791,0,-0.2407,-0.2434,-0.251,-0.2531,-0.2571,-0.2636,-0.268,-0.2724,-0.279,-0.282,-0.2861,-0.2881,-0.2878,-0.2877,-0.2846,-0.2796,-0.2822,-0.2749,-0.2731,-0.2662,-0.2652,-0.2614,-0.2611,-0.2791,-0.2791,-0.2791,-0.2791,0,-0.2349,-0.2407,-0.245,-0.253,-0.2551,-0.2573,-0.2659,-0.2683,-0.2762,-0.2805,-0.2817,-0.2886,-0.2882,-0.2879,-0.2856,-0.281,-0.2721,-0.2746,-0.2669,-0.2641,-0.2549,-0.2551,-0.2498,-0.2426,-0.2682,-0.2681,-0.268,0,-0.2325,-0.234,-0.2419,-0.2428,-0.2458,-0.2508,-0.2529,-0.2636,-0.2668,-0.2794,-0.2796,-0.285,-0.2857,-0.283,-0.2772,-0.2718,-0.2678,-0.2596,-0.2567,-0.2539,-0.2528,-0.2518,-0.2459,-0.2478,-0.2475,-0.2473,-0.2471,0,-0.2253,-0.2278,-0.23,-0.2334,-0.2355,-0.24,-0.2448,-0.2484,-0.2601,-0.2662,-0.2735,-0.2773,-0.2784,-0.2712,-0.2656,-0.2601,-0.2524,-0.2551,-0.2537,-0.2383,-0.2355,-0.2276,-0.2494,-0.2453,-0.2455,-0.2456,-0.2457,-0.2458,-0.2166,-0.2165,-0.2189,-0.2206,-0.2235,-0.2261,-0.2257,-0.2339,-0.2403,-0.248,-0.2596,-0.2643,-0.2625,-0.2552,-0.2497,-0.238,-0.2403,-0.2303,-0.2314,-0.2313,-0.2219,-0.24,-0.2327,-0.2328,-0.2329,-0.233,-0.233,0,-0.2046,-0.2048,-0.2056,-0.2075,-0.2053,-0.2122,-0.2164,-0.2145,-0.2175,-0.2321,-0.2387,-0.2467,-0.2382,-0.2374,-0.228,-0.2174,-0.2107,-0.2109,-0.2078,-0.2032,-0.2202,-0.2169,-0.2038,-0.2038,-0.2038,-0.2038,-0.2038,-0.2038,-0.1976,-0.1933,-0.1944,-0.1873,-0.1883,-0.1822,-0.1817,-0.1828,-0.1902,-0.2,-0.2134,-0.2273,-0.2264,-0.2338,-0.2182,-0.2066,-0.198,-0.192,-0.1918,-0.2055,-0.2075,-0.2093,-0.2062,-0.191,-0.191,-0.1688,-0.1686,-0.1685]},{"header":{"parameterUnit":"m.s-1","parameterCategory":2,"la1":30.2991,"la2":30.254,"lo1":-89.0895,"lo2":-89.0444,"dy":0.0017,"dx":0.0017,"nx":28,"ny":28,"refTime":"2023-08-29T03:00:00:Z","depth":"0","parameterNumber":3,"parameterNumberName":"V-component_of_CURRENTS"},"data":[0,0,0,0,0,0,0,0,0,0,0,0,0,0,0,0,0,0,0,0,0,0,0,0,0,0,0,0,0,0,0,0,0,0,0,0,0,0,0,0,0,0,0,0,0,0,0,0,0,0,0,0,0,0,0,0,0,0,-0.0381,-0.038,0,-0.0295,-0.0294,-0.0293,-0.0237,-0.0237,-0.0236,-0.0236,-0.0121,-0.0118,-0.0115,0,0,0,0,0,0,0,0,0,0,0,0,0,-0.0445,-0.0444,-0.0381,-0.038,-0.0379,-0.0295,-0.0294,-0.0292,-0.0237,-0.0237,-0.0236,-0.0236,-0.0122,-0.0118,-0.0115,0,0,0,0,0,0,0,0,0,0,0,0,0,-0.0393,-0.0444,-0.0381,-0.0341,-0.0337,-0.0295,-0.0294,-0.0292,-0.0237,-0.0237,-0.0236,-0.0236,-0.0123,-0.0119,-0.0115,-0.0097,0,0,-0.0102,-0.01,0,0,0,0,0,0,0,0,-0.0396,-0.0391,-0.0348,-0.0344,-0.0339,-0.0277,-0.0274,-0.0226,-0.0237,-0.0274,-0.0236,-0.0236,-0.0171,-0.0163,-0.0147,-0.0092,-0.0087,-0.0101,-0.0099,-0.0097,-0.0096,0,0,0,0,0,0,0,-0.04,-0.0394,-0.0346,-0.0347,-0.0342,-0.031,-0.0303,-0.0264,-0.0225,-0.0271,-0.0267,-0.0259,-0.0168,-0.0151,-0.0144,-0.0085,-0.0101,-0.0098,-0.0095,-0.0093,-0.0001,-0.0001,0,0,0,0,0,0,-0.0415,-0.0398,-0.0349,-0.0343,-0.0368,-0.031,-0.0301,-0.0297,-0.0226,-0.0215,-0.0259,-0.0256,-0.0159,-0.0149,-0.014,-0.0116,-0.0097,-0.0093,-0.0091,-0.0001,-0.0001,-0.0001,0,0,0,0,0,0,-0.0417,-0.0412,-0.0352,-0.0369,-0.0359,-0.0309,-0.0304,-0.0295,-0.0278,-0.0217,-0.0206,-0.0252,-0.0158,-0.0145,-0.0108,-0.0111,-0.0091,-0.0087,-0.0001,-0.0001,-0.0001,-0.0068,0,0,0,0,0,0,-0.0419,-0.0413,-0.0416,-0.037,-0.0359,-0.0336,-0.0304,-0.0294,-0.0274,-0.027,-0.0207,-0.0196,-0.0157,-0.0115,-0.0104,-0.0105,-0.0084,-0.0001,-0.0001,-0.0001,-0.0065,-0.007,-0.0074,0,0,0,0,0,-0.0422,-0.043,-0.0417,-0.0411,-0.0365,-0.0336,-0.0328,-0.029,-0.0274,-0.0272,-0.0228,-0.0198,-0.0107,-0.0111,-0.0098,-0.0098,-0.0,-0.0001,-0.0001,-0.0063,-0.0069,-0.0074,0,0,0,0,0,0,-0.0458,-0.0424,-0.0409,-0.0406,-0.0377,-0.0327,-0.0322,-0.0296,-0.0259,-0.0255,-0.0197,-0.0183,-0.0151,-0.0116,-0.0122,-0.0072,-0.0049,-0.0047,-0.0101,-0.0106,-0.011,-0.0123,-0.0081,0,0,0,0,0,-0.0469,-0.0469,-0.0428,-0.0427,-0.0415,-0.037,-0.0354,-0.033,-0.0291,-0.0274,-0.0229,-0.0183,-0.0141,-0.0119,-0.0078,-0.0051,-0.0013,-0.0043,-0.0047,-0.0051,-0.0052,0.0003,0.0003,-0.0001,-0.0001,-0.0001,0,0,-0.0482,-0.0465,-0.0463,-0.0435,-0.0409,-0.04,-0.0359,-0.0342,-0.0331,-0.0267,-0.024,-0.0196,-0.0138,-0.0107,-0.009,-0.0079,-0.0031,-0.0051,-0.0055,-0.0054,0.0003,0.0003,0.0004,-0.0001,-0.0001,-0.0001,0,0,-0.0512,-0.0494,-0.0504,-0.0488,-0.0458,-0.0427,-0.0426,-0.038,-0.0356,-0.0325,-0.0276,-0.0235,-0.0175,-0.0132,-0.0103,-0.0106,-0.0056,-0.0095,-0.0125,-0.0072,-0.0072,-0.007,-0.0031,-0.0025,-0.0097,-0.0097,-0.0097,0,-0.0531,-0.0537,-0.0502,-0.0509,-0.0502,-0.0444,-0.0454,-0.0418,-0.0365,-0.0345,-0.0328,-0.0231,-0.0186,-0.0138,-0.0141,-0.0116,-0.0082,-0.0113,-0.0079,-0.0077,-0.0074,-0.0033,-0.0027,-0.01,-0.01,-0.01,-0.0099,0,-0.0568,-0.0573,-0.0579,-0.0569,-0.0555,-0.0555,-0.0506,-0.0481,-0.0444,-0.0404,-0.0351,-0.0284,-0.0226,-0.0207,-0.0174,-0.0135,-0.0116,-0.0092,-0.0069,-0.0078,-0.0034,-0.0026,-0.0105,-0.0104,-0.0103,-0.0102,0,0,-0.0612,-0.0607,-0.0612,-0.0621,-0.0591,-0.0584,-0.0561,-0.0522,-0.0504,-0.0442,-0.0413,-0.0339,-0.0296,-0.026,-0.0208,-0.0163,-0.0122,-0.0128,-0.0124,-0.0096,-0.0012,0.004,0.0054,-0.0092,-0.0091,-0.009,0.0008,0,-0.0654,-0.0693,-0.067,-0.0695,-0.0708,-0.0655,-0.0645,-0.06,-0.0543,-0.0497,-0.0412,-0.0365,-0.0316,-0.0291,-0.0237,-0.0144,-0.0101,-0.0151,-0.0001,0.0003,0.0045,0.0065,0.0112,0.0206,0.0016,0.0018,0.0019,0,-0.0702,-0.0723,-0.0764,-0.0767,-0.0768,-0.0766,-0.0732,-0.071,-0.0624,-0.0582,-0.0506,-0.0435,-0.0349,-0.0314,-0.016,-0.0193,-0.0114,-0.0045,-0.0039,0.004,0.0071,0.0188,0.0229,0.037,0.0032,0.0031,0.003,0,-0.0765,-0.0786,-0.0824,-0.0828,-0.082,-0.0818,-0.0801,-0.0738,-0.0718,-0.0625,-0.0598,-0.0479,-0.0418,-0.0298,-0.0145,-0.0154,0.0024,0.0032,0.0152,0.0156,0.0242,0.0252,0.0434,0.0128,0.0128,0.0128,0.0127,0,-0.0826,-0.0853,-0.0857,-0.088,-0.0921,-0.0884,-0.0893,-0.0853,-0.079,-0.0769,-0.0646,-0.0598,-0.0412,-0.0282,-0.0154,0.0037,0.0023,0.0155,0.0192,0.0219,0.0225,0.0389,0.0444,0.0131,0.013,0.013,0.0129,0,-0.0889,-0.0891,-0.0936,-0.0947,-0.0954,-0.098,-0.0967,-0.0964,-0.0893,-0.0856,-0.0832,-0.0676,-0.0496,-0.0301,-0.0092,0.0028,0.0301,0.0262,0.0277,0.0314,0.055,0.0599,0.0828,0.0908,0.0408,0.041,0.0412,0,-0.0925,-0.0956,-0.1001,-0.1034,-0.1039,-0.1065,-0.1085,-0.103,-0.1016,-0.0905,-0.0894,-0.071,-0.0568,-0.0223,0.003,0.0288,0.0396,0.0465,0.046,0.0585,0.0666,0.0704,0.0756,0.0542,0.0545,0.0547,0.0549,0,-0.0989,-0.1003,-0.1041,-0.1122,-0.1155,-0.1193,-0.1203,-0.121,-0.1134,-0.1083,-0.0975,-0.0846,-0.0486,-0.0154,0.0199,0.0355,0.059,0.0516,0.0655,0.08,0.0846,0.0933,0.0442,0.0568,0.0566,0.0564,0.0563,0.0563,-0.1027,-0.1077,-0.1131,-0.1202,-0.1252,-0.1302,-0.133,-0.1318,-0.1298,-0.1198,-0.105,-0.0826,-0.0311,0.0206,0.0388,0.0799,0.075,0.0908,0.0958,0.0986,0.1069,0.0613,0.0773,0.0773,0.0772,0.0772,0.0771,0,-0.1077,-0.113,-0.1206,-0.1287,-0.1357,-0.1361,-0.1396,-0.14,-0.1384,-0.1228,-0.1083,-0.0516,-0.0022,0.0445,0.1037,0.1231,0.1269,0.1326,0.1394,0.1426,0.1042,0.1053,0.1271,0.1271,0.1271,0.127,0.127,0.127,-0.1102,-0.1187,-0.1232,-0.1357,-0.1412,-0.1484,-0.1504,-0.1492,-0.1391,-0.1125,-0.0808,-0.0547,0.0177,0.1134,0.1641,0.1665,0.181,0.1801,0.187,0.1603,0.1567,0.1533,0.1558,0.1879,0.1879,0.2245,0.2248,0.2251]}],[{"header":{"parameterUnit":"m.s-1","parameterCategory":2,"la1":30.2991,"la2":30.254,"lo1":-89.0895,"lo2":-89.0444,"dy":0.0017,"dx":0.0017,"nx":28,"ny":28,"refTime":"2023-08-29T03:00:00:Z","depth":"2","parameterNumber":2,"parameterNumberName":"U-component_of_CURRENTS"},"data":[0,0,0,0,0,0,0,0,0,0,0,0,0,0,0,0,0,0,0,0,0,0,0,0,0,0,0,0,0,0,0,0,0,0,0,0,0,0,0,0,0,0,0,0,0,0,0,0,0,0,0,0,0,0,0,0,0,0,-0.244,-0.244,0,-0.246,-0.246,-0.246,-0.2441,-0.2441,-0.244,-0.244,-0.2429,-0.2429,-0.2429,0,0,0,0,0,0,0,0,0,0,0,0,0,-0.2382,-0.2383,-0.244,-0.244,-0.2441,-0.246,-0.246,-0.246,-0.2441,-0.2441,-0.244,-0.244,-0.2429,-0.2429,-0.2429,0,0,0,0,0,0,0,0,0,0,0,0,0,-0.2403,-0.2384,-0.244,-0.2436,-0.2436,-0.246,-0.246,-0.246,-0.2442,-0.2441,-0.244,-0.2439,-0.2429,-0.2429,-0.2429,-0.2447,0,0,-0.243,-0.243,0,0,0,0,0,0,0,0,-0.2402,-0.2405,-0.2436,-0.2436,-0.2436,-0.2449,-0.2436,-0.2455,-0.2442,-0.2437,-0.244,-0.2439,-0.2435,-0.2435,-0.2437,-0.2446,-0.2446,-0.243,-0.243,-0.243,-0.243,0,0,0,0,0,0,0,-0.24,-0.2404,-0.2445,-0.2436,-0.2437,-0.2432,-0.2434,-0.2439,-0.2438,-0.2437,-0.2436,-0.2443,-0.2434,-0.2437,-0.2437,-0.2445,-0.243,-0.243,-0.2431,-0.2431,-0.2481,-0.2482,0,0,0,0,0,0,-0.2404,-0.2403,-0.2445,-0.2446,-0.2419,-0.2434,-0.2436,-0.2444,-0.2438,-0.2437,-0.2443,-0.2442,-0.2437,-0.2436,-0.2436,-0.2464,-0.243,-0.2431,-0.2431,-0.248,-0.2481,-0.2482,0,0,0,0,0,0,-0.2403,-0.2408,-0.2444,-0.2426,-0.2431,-0.2436,-0.2445,-0.2445,-0.245,-0.2444,-0.2442,-0.2449,-0.2436,-0.2436,-0.245,-0.2463,-0.2431,-0.2431,-0.2478,-0.248,-0.2482,-0.2515,0,0,0,0,0,0,-0.2401,-0.2407,-0.2412,-0.2427,-0.2432,-0.2468,-0.2446,-0.2446,-0.2456,-0.2454,-0.2448,-0.2446,-0.2436,-0.245,-0.245,-0.2463,-0.2431,-0.2477,-0.2479,-0.2481,-0.2513,-0.2518,-0.2522,0,0,0,0,0,-0.2399,-0.2413,-0.2412,-0.2417,-0.2439,-0.2469,-0.2472,-0.247,-0.2457,-0.2469,-0.2463,-0.2446,-0.2464,-0.2451,-0.2451,-0.2464,-0.2476,-0.2479,-0.2481,-0.2511,-0.2517,-0.2522,0,0,0,0,0,0,-0.239,-0.2414,-0.2412,-0.2432,-0.2453,-0.2467,-0.2475,-0.2476,-0.2481,-0.2475,-0.2462,-0.2461,-0.248,-0.2472,-0.2458,-0.2487,-0.2467,-0.247,-0.2489,-0.2495,-0.25,-0.2507,-0.2432,0,0,0,0,0,-0.2391,-0.2405,-0.243,-0.2444,-0.2456,-0.2466,-0.2475,-0.2479,-0.2488,-0.2489,-0.2486,-0.2484,-0.2492,-0.2493,-0.2499,-0.2515,-0.2506,-0.2524,-0.2529,-0.2533,-0.2541,-0.2537,-0.2542,-0.2491,-0.2491,-0.2491,0,0,-0.2389,-0.2405,-0.2411,-0.2443,-0.2453,-0.2481,-0.2469,-0.2491,-0.2511,-0.2488,-0.2507,-0.2504,-0.2502,-0.252,-0.2527,-0.2513,-0.2545,-0.2536,-0.254,-0.2545,-0.254,-0.2545,-0.2549,-0.2493,-0.2492,-0.2492,0,0,-0.2396,-0.241,-0.2423,-0.2448,-0.2476,-0.2491,-0.2501,-0.2523,-0.2529,-0.2551,-0.2541,-0.255,-0.2556,-0.2561,-0.2562,-0.2601,-0.2574,-0.2599,-0.2624,-0.262,-0.2624,-0.2627,-0.2625,-0.2628,-0.2596,-0.2596,-0.2596,0,-0.239,-0.2416,-0.2433,-0.246,-0.2481,-0.2499,-0.2525,-0.2544,-0.2567,-0.2575,-0.2561,-0.2578,-0.2577,-0.2601,-0.2614,-0.2612,-0.2602,-0.2598,-0.2625,-0.2628,-0.2631,-0.2628,-0.263,-0.2598,-0.2598,-0.2598,-0.2598,0,-0.2411,-0.2436,-0.245,-0.2488,-0.2515,-0.2545,-0.2578,-0.2601,-0.2606,-0.2616,-0.2638,-0.2637,-0.2642,-0.2647,-0.2641,-0.2665,-0.265,-0.2633,-0.2606,-0.2638,-0.2633,-0.2635,-0.2601,-0.26,-0.26,-0.2599,0,0,-0.2383,-0.2451,-0.2453,-0.2478,-0.2534,-0.2557,-0.2602,-0.2642,-0.2665,-0.2676,-0.2698,-0.2712,-0.2701,-0.2704,-0.2697,-0.2698,-0.2712,-0.2674,-0.2673,-0.2667,-0.2702,-0.2652,-0.2649,-0.2691,-0.2692,-0.2692,-0.2691,0,-0.2391,-0.2441,-0.2476,-0.2526,-0.2557,-0.2599,-0.2638,-0.2675,-0.2699,-0.2727,-0.2729,-0.2744,-0.2726,-0.2725,-0.2726,-0.2719,-0.2718,-0.2714,-0.2678,-0.2678,-0.2624,-0.2651,-0.2424,-0.24,-0.2693,-0.2693,-0.2694,0,-0.2393,-0.243,-0.2478,-0.2548,-0.2564,-0.2596,-0.2656,-0.2697,-0.2747,-0.2759,-0.2774,-0.2778,-0.2794,-0.2766,-0.2762,-0.2756,-0.2735,-0.2724,-0.2723,-0.2666,-0.2632,-0.2417,-0.2393,-0.2697,-0.2696,-0.2696,-0.2696,0,-0.2353,-0.2428,-0.2464,-0.249,-0.2572,-0.2595,-0.2635,-0.2694,-0.273,-0.2775,-0.2794,-0.2809,-0.2813,-0.2796,-0.2774,-0.2766,-0.2762,-0.2744,-0.2682,-0.2678,-0.2475,-0.2452,-0.2739,-0.2739,-0.2739,-0.2739,-0.2739,0,-0.2346,-0.2373,-0.2447,-0.2467,-0.2507,-0.2571,-0.2615,-0.2658,-0.2724,-0.2754,-0.2797,-0.2816,-0.2818,-0.2818,-0.2789,-0.2741,-0.2768,-0.2694,-0.2676,-0.2482,-0.2461,-0.2708,-0.2704,-0.2738,-0.2739,-0.2739,-0.2739,0,-0.229,-0.2346,-0.2388,-0.2467,-0.2488,-0.2511,-0.2594,-0.2619,-0.2697,-0.274,-0.2752,-0.2821,-0.2819,-0.2819,-0.2798,-0.2753,-0.2718,-0.2691,-0.2469,-0.2425,-0.2635,-0.2634,-0.2628,-0.2626,-0.2624,-0.2623,-0.2622,0,-0.2266,-0.2281,-0.2359,-0.2368,-0.2398,-0.2448,-0.2469,-0.2574,-0.2604,-0.2727,-0.2729,-0.2784,-0.2786,-0.2762,-0.2676,-0.2617,-0.2687,-0.2389,-0.234,-0.2642,-0.2625,-0.2625,-0.2626,-0.2081,-0.2076,-0.2071,-0.2068,0,-0.2197,-0.2221,-0.2243,-0.2277,-0.2299,-0.2342,-0.2389,-0.2422,-0.2536,-0.2592,-0.2661,-0.2694,-0.2678,-0.2519,-0.2454,-0.2388,-0.2383,-0.23,-0.265,-0.2159,-0.213,-0.2113,-0.213,-0.2029,-0.2033,-0.2036,-0.2038,-0.2039,-0.2114,-0.2112,-0.2136,-0.2153,-0.2182,-0.2205,-0.2199,-0.2269,-0.2324,-0.2362,-0.2489,-0.2454,-0.2416,-0.2213,-0.21,-0.2008,-0.218,-0.2065,-0.2076,-0.2093,-0.2044,-0.2016,-0.1884,-0.1887,-0.1889,-0.1892,-0.1894,0,-0.1995,-0.2,-0.2008,-0.2025,-0.2,-0.2071,-0.2107,-0.2068,-0.2078,-0.2139,-0.2174,-0.1955,-0.1859,-0.1838,-0.1633,-0.1603,-0.1562,-0.1537,-0.1465,-0.1505,-0.1541,-0.1462,-0.1149,-0.1146,-0.1144,-0.1142,0,0,-0.1927,-0.1884,-0.1894,-0.1822,-0.1833,-0.1766,-0.1758,-0.1727,-0.1732,-0.1678,-0.1655,-0.1774,-0.1802,-0.147,-0.1387,-0.124,-0.1362,-0.1179,-0.1776,-0.1733,-0.1766,-0.1844,-0.1769,0,0,0,0,0]},{"header":{"parameterUnit":"m.s-1","parameterCategory":2,"la1":30.2991,"la2":30.254,"lo1":-89.0895,"lo2":-89.0444,"dy":0.0017,"dx":0.0017,"nx":28,"ny":28,"refTime":"2023-08-29T03:00:00:Z","depth":"2","parameterNumber":3,"parameterNumberName":"V-component_of_CURRENTS"},"data":[0,0,0,0,0,0,0,0,0,0,0,0,0,0,0,0,0,0,0,0,0,0,0,0,0,0,0,0,0,0,0,0,0,0,0,0,0,0,0,0,0,0,0,0,0,0,0,0,0,0,0,0,0,0,0,0,0,0,-0.0286,-0.0285,0,-0.02,-0.0199,-0.0198,-0.0145,-0.0145,-0.0144,-0.0144,-0.0031,-0.0028,-0.0025,0,0,0,0,0,0,0,0,0,0,0,0,0,-0.0349,-0.0348,-0.0286,-0.0285,-0.0284,-0.0201,-0.0199,-0.0198,-0.0145,-0.0145,-0.0144,-0.0144,-0.0032,-0.0028,-0.0025,0,0,0,0,0,0,0,0,0,0,0,0,0,-0.0298,-0.0348,-0.0286,-0.0248,-0.0244,-0.0201,-0.0199,-0.0198,-0.0145,-0.0145,-0.0144,-0.0144,-0.0033,-0.0029,-0.0025,-0.0005,0,0,-0.0012,-0.001,0,0,0,0,0,0,0,0,-0.0301,-0.0295,-0.0254,-0.025,-0.0246,-0.0184,-0.018,-0.0132,-0.0145,-0.0182,-0.0144,-0.0144,-0.008,-0.0072,-0.0056,-0.0,0.0005,-0.0011,-0.0009,-0.0007,-0.0006,0,0,0,0,0,0,0,-0.0304,-0.0298,-0.0251,-0.0253,-0.0248,-0.0216,-0.0209,-0.017,-0.0133,-0.0178,-0.0174,-0.0166,-0.0077,-0.006,-0.0053,0.0006,-0.0011,-0.0008,-0.0005,-0.0003,0.0089,0.0089,0,0,0,0,0,0,-0.0319,-0.0302,-0.0254,-0.0249,-0.0274,-0.0216,-0.0208,-0.0203,-0.0134,-0.0123,-0.0167,-0.0164,-0.0068,-0.0058,-0.0049,-0.0026,-0.0007,-0.0003,-0.0001,0.0089,0.0089,0.0089,0,0,0,0,0,0,-0.0321,-0.0316,-0.0257,-0.0274,-0.0264,-0.0216,-0.0211,-0.0202,-0.0186,-0.0125,-0.0114,-0.0161,-0.0067,-0.0054,-0.0018,-0.0021,-0.0001,0.0003,0.0089,0.0089,0.0089,0.0022,0,0,0,0,0,0,-0.0324,-0.0317,-0.0321,-0.0275,-0.0264,-0.0241,-0.0211,-0.02,-0.0182,-0.0178,-0.0116,-0.0105,-0.0066,-0.0024,-0.0013,-0.0015,0.0006,0.0089,0.0089,0.0089,0.0024,0.0019,0.0015,0,0,0,0,0,-0.0326,-0.0335,-0.0322,-0.0316,-0.027,-0.0242,-0.0233,-0.0196,-0.0182,-0.018,-0.0137,-0.0107,-0.0017,-0.0021,-0.0008,-0.0009,0.009,0.0089,0.0089,0.0026,0.002,0.0015,0,0,0,0,0,0,-0.0362,-0.0329,-0.0314,-0.0312,-0.0283,-0.0233,-0.0228,-0.0203,-0.0167,-0.0164,-0.0106,-0.0092,-0.0061,-0.0026,-0.0032,0.0018,0.0041,0.0043,-0.0012,-0.0017,-0.0021,-0.0033,0.001,0,0,0,0,0,-0.0374,-0.0373,-0.0333,-0.0332,-0.0321,-0.0276,-0.0261,-0.0237,-0.0198,-0.0182,-0.0138,-0.0092,-0.0051,-0.0029,0.0012,0.0039,0.0077,0.0047,0.0042,0.0038,0.0038,0.0092,0.0092,0.0089,0.0089,0.0089,0,0,-0.0386,-0.037,-0.0368,-0.034,-0.0315,-0.0306,-0.0266,-0.0249,-0.0238,-0.0176,-0.0149,-0.0106,-0.0047,-0.0017,0.0,0.0011,0.0058,0.0038,0.0034,0.0036,0.0092,0.0092,0.0092,0.0089,0.0089,0.0089,0,0,-0.0416,-0.0399,-0.0409,-0.0393,-0.0364,-0.0333,-0.0332,-0.0287,-0.0264,-0.0234,-0.0185,-0.0145,-0.0086,-0.0043,-0.0013,-0.0017,0.0033,-0.0006,-0.0036,0.0016,0.0017,0.0018,0.0056,0.0061,-0.0008,-0.0008,-0.0008,0,-0.0435,-0.0441,-0.0406,-0.0413,-0.0407,-0.0351,-0.0359,-0.0324,-0.0273,-0.0253,-0.0237,-0.0141,-0.0096,-0.0048,-0.0051,-0.0027,0.0006,-0.0024,0.0009,0.0012,0.0014,0.0053,0.006,-0.0012,-0.0011,-0.0011,-0.0011,0,-0.0471,-0.0476,-0.0482,-0.0472,-0.0458,-0.0457,-0.041,-0.0386,-0.035,-0.0311,-0.0259,-0.0193,-0.0136,-0.0117,-0.0085,-0.0047,-0.0028,-0.0004,0.0019,0.001,0.0052,0.006,-0.0016,-0.0015,-0.0014,-0.0013,0,0,-0.0515,-0.0509,-0.0514,-0.0522,-0.0493,-0.0486,-0.0464,-0.0425,-0.0407,-0.0348,-0.0319,-0.0246,-0.0205,-0.0169,-0.0118,-0.0074,-0.0035,-0.004,-0.0036,-0.0009,0.0072,0.0119,0.0133,-0.0005,-0.0004,-0.0003,0.0091,0,-0.0555,-0.0592,-0.057,-0.0593,-0.0606,-0.0554,-0.0544,-0.0501,-0.0445,-0.0401,-0.0318,-0.0272,-0.0225,-0.0201,-0.0147,-0.0056,-0.0015,-0.0063,0.0083,0.0088,0.0126,0.0144,0.0116,0.02,0.0099,0.01,0.0101,0,-0.0602,-0.0621,-0.0661,-0.0663,-0.0663,-0.0662,-0.0629,-0.0607,-0.0524,-0.0484,-0.041,-0.034,-0.0257,-0.0223,-0.0073,-0.0105,-0.0029,0.0039,0.0045,0.012,0.0151,0.0197,0.0219,0.0115,0.0114,0.0113,0.0112,0,-0.0663,-0.0682,-0.0719,-0.0723,-0.0714,-0.0713,-0.0697,-0.0635,-0.0616,-0.0527,-0.05,-0.0385,-0.0326,-0.0208,-0.0059,-0.0067,0.0105,0.0115,0.0228,0.0232,0.0254,0.0258,0.0209,0.0209,0.0209,0.0208,0.0208,0,-0.0722,-0.0748,-0.0752,-0.0774,-0.0815,-0.0778,-0.0788,-0.0749,-0.0688,-0.0668,-0.0548,-0.0501,-0.032,-0.0194,-0.0069,0.0116,0.0104,0.0231,0.0267,0.0229,0.023,0.0194,0.0191,0.0212,0.0211,0.021,0.021,0,-0.0784,-0.0785,-0.0829,-0.0839,-0.0847,-0.0873,-0.0861,-0.0858,-0.079,-0.0754,-0.0731,-0.0579,-0.0405,-0.0216,-0.0012,0.0106,0.0272,0.0333,0.0274,0.0302,0.036,0.0352,0.0467,0.0469,0.0472,0.0474,0.0475,0,-0.0819,-0.0848,-0.0893,-0.0925,-0.0932,-0.0957,-0.0977,-0.0923,-0.091,-0.0801,-0.0791,-0.0613,-0.0476,-0.0142,0.0094,0.0341,0.0333,0.0449,0.0435,0.0367,0.039,0.0378,0.0368,0.0429,0.043,0.0431,0.0431,0,-0.0881,-0.0895,-0.0932,-0.1012,-0.1046,-0.1082,-0.1092,-0.1098,-0.1024,-0.0975,-0.087,-0.0746,-0.0408,-0.0123,0.0213,0.035,0.0413,0.0476,0.0436,0.037,0.034,0.0359,0.0349,0.0439,0.0438,0.0438,0.0437,0.0437,-0.0919,-0.0968,-0.1021,-0.1091,-0.114,-0.1187,-0.1214,-0.1197,-0.1176,-0.1063,-0.0935,-0.071,-0.0422,0.0066,0.0291,0.0507,0.0502,0.0555,0.0548,0.0541,0.0523,0.0499,0.0623,0.0624,0.0624,0.0624,0.0624,0,-0.0965,-0.102,-0.1094,-0.1173,-0.1237,-0.1246,-0.128,-0.1264,-0.1239,-0.108,-0.0934,-0.0593,-0.0254,0.0046,0.0393,0.0596,0.0566,0.0626,0.0543,0.0536,0.0529,0.0506,0.0604,0.0604,0.0604,0.0605,0,0,-0.0988,-0.107,-0.1114,-0.1233,-0.129,-0.1352,-0.1371,-0.1321,-0.121,-0.1045,-0.0858,-0.0589,-0.0227,0.0011,0.0267,0.0445,0.0434,0.0461,0.046,0.0324,0.0315,0.0475,0.0431,0,0,0,0,0]}],[{"header":{"parameterUnit":"m.s-1","parameterCategory":2,"la1":30.2991,"la2":30.254,"lo1":-89.0895,"lo2":-89.0444,"dy":0.0017,"dx":0.0017,"nx":28,"ny":28,"refTime":"2023-08-29T03:00:00:Z","depth":"4","parameterNumber":2,"parameterNumberName":"U-component_of_CURRENTS"},"data":[0,0,0,0,0,0,0,0,0,0,0,0,0,0,0,0,0,0,0,0,0,0,0,0,0,0,0,0,0,0,0,0,0,0,0,0,0,0,0,0,0,0,0,0,0,0,0,0,0,0,0,0,0,0,0,0,0,0,-0.1678,-0.1679,0,-0.1732,-0.1733,-0.1733,-0.177,-0.1771,-0.1771,-0.1772,-0.1833,-0.1835,-0.1836,0,0,0,0,0,0,0,0,0,0,0,0,0,-0.1597,-0.1598,-0.1678,-0.1679,-0.1679,-0.1732,-0.1733,-0.1733,-0.177,-0.1771,-0.1771,-0.1772,-0.1833,-0.1835,-0.1836,0,0,0,0,0,0,0,0,0,0,0,0,0,-0.1638,-0.1598,-0.1678,-0.1705,-0.1709,-0.1732,-0.1733,-0.1734,-0.177,-0.1771,-0.1771,-0.1772,-0.1833,-0.1834,-0.1836,-0.1835,0,0,-0.1842,-0.1843,0,0,0,0,0,0,0,0,-0.1636,-0.1641,-0.1701,-0.1704,-0.1707,-0.1747,-0.1727,-0.1769,-0.177,-0.1745,-0.1772,-0.1772,-0.1806,-0.181,-0.1816,-0.1838,-0.1841,-0.1842,-0.1843,-0.1844,-0.1845,0,0,0,0,0,0,0,-0.1633,-0.1638,-0.1698,-0.1701,-0.1705,-0.1712,-0.1719,-0.1735,-0.177,-0.1747,-0.175,-0.1759,-0.1808,-0.1814,-0.1818,-0.1842,-0.1842,-0.1844,-0.1845,-0.1846,-0.1951,-0.1953,0,0,0,0,0,0,-0.1629,-0.1636,-0.1696,-0.1699,-0.1674,-0.1713,-0.1721,-0.1732,-0.177,-0.1777,-0.1758,-0.1761,-0.1811,-0.1816,-0.182,-0.1898,-0.1844,-0.1846,-0.1847,-0.195,-0.1952,-0.1954,0,0,0,0,0,0,-0.1627,-0.1634,-0.1694,-0.167,-0.1678,-0.1714,-0.1727,-0.1733,-0.1772,-0.1779,-0.1785,-0.1795,-0.1811,-0.1818,-0.1867,-0.1898,-0.1847,-0.1848,-0.1948,-0.195,-0.1953,-0.2005,0,0,0,0,0,0,-0.1625,-0.1633,-0.1654,-0.167,-0.168,-0.1732,-0.1727,-0.1733,-0.1775,-0.1779,-0.1811,-0.1816,-0.1812,-0.1864,-0.1869,-0.19,-0.185,-0.1946,-0.1949,-0.1952,-0.2001,-0.2009,-0.2015,0,0,0,0,0,-0.1622,-0.1644,-0.1655,-0.1663,-0.1702,-0.1733,-0.174,-0.1765,-0.1776,-0.1801,-0.1826,-0.1817,-0.1887,-0.1867,-0.1872,-0.1904,-0.1944,-0.1948,-0.1952,-0.1998,-0.2007,-0.2015,0,0,0,0,0,0,-0.1621,-0.1651,-0.1662,-0.1694,-0.1724,-0.1741,-0.1769,-0.1785,-0.1823,-0.1835,-0.1839,-0.1846,-0.19,-0.1898,-0.1876,-0.1945,-0.1914,-0.1919,-0.1947,-0.1956,-0.1964,-0.1965,-0.1851,0,0,0,0,0,-0.163,-0.1656,-0.1683,-0.1711,-0.1729,-0.1755,-0.1776,-0.1796,-0.1824,-0.1842,-0.1865,-0.189,-0.1913,-0.1933,-0.1953,-0.1992,-0.1977,-0.2016,-0.2023,-0.2029,-0.2036,-0.2038,-0.2045,-0.1966,-0.1966,-0.1966,0,0,-0.1638,-0.1658,-0.1674,-0.1714,-0.1738,-0.1772,-0.1771,-0.1814,-0.1849,-0.1842,-0.1907,-0.192,-0.1931,-0.1975,-0.1999,-0.1981,-0.2045,-0.2034,-0.2039,-0.2042,-0.2043,-0.205,-0.2057,-0.1969,-0.1968,-0.1968,0,0,-0.1655,-0.1687,-0.1712,-0.1742,-0.1786,-0.1805,-0.1826,-0.1865,-0.1895,-0.1948,-0.1953,-0.199,-0.2029,-0.2041,-0.205,-0.2111,-0.2085,-0.2121,-0.2159,-0.2162,-0.2168,-0.2173,-0.2163,-0.2166,-0.2123,-0.2123,-0.2123,0,-0.1665,-0.17,-0.1725,-0.1757,-0.1789,-0.1824,-0.1861,-0.1896,-0.1949,-0.1974,-0.198,-0.2043,-0.2058,-0.2099,-0.2124,-0.2127,-0.2118,-0.2122,-0.217,-0.2175,-0.2179,-0.2167,-0.217,-0.2126,-0.2126,-0.2126,-0.2125,0,-0.1691,-0.1734,-0.1755,-0.1806,-0.1843,-0.1885,-0.193,-0.1979,-0.2017,-0.2041,-0.2103,-0.2122,-0.2153,-0.2169,-0.2168,-0.2213,-0.2193,-0.2177,-0.2143,-0.219,-0.2174,-0.2177,-0.2131,-0.2129,-0.2129,-0.2128,0,0,-0.1668,-0.1756,-0.1765,-0.1802,-0.1876,-0.1904,-0.1973,-0.2033,-0.2076,-0.2127,-0.2174,-0.2222,-0.2229,-0.224,-0.2244,-0.2257,-0.2284,-0.2238,-0.2237,-0.2219,-0.2283,-0.2136,-0.2124,-0.2275,-0.2276,-0.2277,-0.2258,0,-0.1683,-0.1748,-0.1791,-0.1864,-0.1903,-0.1964,-0.202,-0.208,-0.2131,-0.2187,-0.2215,-0.2259,-0.2256,-0.2275,-0.2289,-0.2289,-0.2295,-0.229,-0.2248,-0.2246,-0.2102,-0.2123,-0.228,-0.226,-0.2261,-0.2261,-0.2261,0,-0.1683,-0.1732,-0.1803,-0.1896,-0.1919,-0.1971,-0.2063,-0.2119,-0.2199,-0.2234,-0.2279,-0.23,-0.2341,-0.2325,-0.2339,-0.2336,-0.2319,-0.231,-0.2308,-0.2153,-0.2103,-0.2205,-0.2266,-0.2265,-0.2265,-0.2265,-0.2264,0,-0.1636,-0.1736,-0.1796,-0.183,-0.1939,-0.1987,-0.2047,-0.2133,-0.2182,-0.2265,-0.2296,-0.2341,-0.2365,-0.2361,-0.2349,-0.2349,-0.2346,-0.2334,-0.2183,-0.2172,-0.2288,-0.2282,-0.2336,-0.2336,-0.2336,-0.2336,-0.2336,0,-0.1615,-0.1666,-0.1786,-0.1818,-0.189,-0.1973,-0.205,-0.2113,-0.2202,-0.2238,-0.2314,-0.233,-0.2377,-0.238,-0.236,-0.2268,-0.2348,-0.2187,-0.2156,-0.2311,-0.2308,-0.2289,-0.2284,-0.2335,-0.2335,-0.2336,-0.2336,0,-0.1543,-0.1628,-0.1702,-0.1828,-0.187,-0.1919,-0.2043,-0.2081,-0.2183,-0.2231,-0.2256,-0.2334,-0.2324,-0.2344,-0.2335,-0.2258,-0.2202,-0.215,-0.2313,-0.2292,-0.2027,-0.2025,-0.1974,-0.1969,-0.1964,-0.196,-0.1957,0,-0.151,-0.1543,-0.1686,-0.1722,-0.1783,-0.1874,-0.1919,-0.2048,-0.2079,-0.22,-0.2194,-0.2247,-0.227,-0.2139,-0.2178,-0.2115,-0.2091,-0.2048,-0.2041,-0.2014,-0.199,-0.1995,-0.1999,-0.195,-0.1948,-0.1947,-0.1946,0,-0.1433,-0.1497,-0.1551,-0.1632,-0.1696,-0.1761,-0.1838,-0.1853,-0.1975,-0.209,-0.2072,-0.2064,-0.205,-0.2033,-0.1997,-0.1955,-0.2069,-0.2,-0.201,-0.2003,-0.1984,-0.1965,-0.1975,-0.193,-0.1932,-0.1934,-0.1935,0,-0.1366,-0.1384,-0.146,-0.1512,-0.1588,-0.1609,-0.1679,-0.1707,-0.1766,-0.1901,-0.1886,-0.1944,-0.2026,-0.1947,-0.1913,-0.186,-0.1831,-0.1768,-0.1789,-0.1807,-0.1758,-0.171,-0.154,0,0,0,0,0,-0.1287,-0.1287,-0.1328,-0.1381,-0.1447,-0.1491,-0.1595,-0.1665,-0.1789,-0.1724,-0.1805,-0.1782,-0.1744,-0.1781,-0.1686,-0.1828,-0.1834,-0.171,-0.1772,-0.1842,-0.186,-0.1818,0,0,0,0,0,0,-0.1232,-0.1265,-0.1281,-0.1248,-0.1254,-0.1315,-0.1375,-0.1467,-0.1447,-0.1578,-0.1567,-0.1663,-0.1652,-0.1763,-0.1645,-0.1652,-0.1652,-0.1755,-0.175,-0.1832,-0.1848,-0.1863,-0.1825,0,0,0,0,0]},{"header":{"parameterUnit":"m.s-1","parameterCategory":2,"la1":30.2991,"la2":30.254,"lo1":-89.0895,"lo2":-89.0444,"dy":0.0017,"dx":0.0017,"nx":28,"ny":28,"refTime":"2023-08-29T03:00:00:Z","depth":"4","parameterNumber":3,"parameterNumberName":"V-component_of_CURRENTS"},"data":[0,0,0,0,0,0,0,0,0,0,0,0,0,0,0,0,0,0,0,0,0,0,0,0,0,0,0,0,0,0,0,0,0,0,0,0,0,0,0,0,0,0,0,0,0,0,0,0,0,0,0,0,0,0,0,0,0,0,-0.0108,-0.0107,0,-0.0049,-0.0049,-0.0048,-0.0009,-0.0008,-0.0008,-0.0008,0.0081,0.0083,0.0085,0,0,0,0,0,0,0,0,0,0,0,0,0,-0.014,-0.014,-0.0108,-0.0107,-0.0107,-0.0049,-0.0048,-0.0048,-0.0009,-0.0008,-0.0008,-0.0008,0.008,0.0083,0.0085,0,0,0,0,0,0,0,0,0,0,0,0,0,-0.0108,-0.014,-0.0108,-0.0081,-0.0078,-0.005,-0.0048,-0.0047,-0.0009,-0.0008,-0.0008,-0.0008,0.0079,0.0083,0.0086,0.0101,0,0,0.0096,0.0097,0,0,0,0,0,0,0,0,-0.011,-0.0106,-0.0086,-0.0083,-0.0079,-0.0037,-0.0027,0.0003,-0.0009,-0.0034,-0.0008,-0.0008,0.0044,0.005,0.0061,0.0105,0.0109,0.0096,0.0098,0.01,0.0101,0,0,0,0,0,0,0,-0.0112,-0.0108,-0.0084,-0.0085,-0.0081,-0.0056,-0.0051,-0.0021,0.0004,-0.0032,-0.0029,-0.0024,0.0046,0.0058,0.0064,0.011,0.0096,0.0099,0.0101,0.0102,0.0173,0.0173,0,0,0,0,0,0,-0.0124,-0.0111,-0.0086,-0.0082,-0.0095,-0.0056,-0.0051,-0.005,0.0003,0.0011,-0.0024,-0.0022,0.0052,0.006,0.0067,0.0081,0.01,0.0103,0.0105,0.0173,0.0173,0.0173,0,0,0,0,0,0,-0.0125,-0.0122,-0.0088,-0.0095,-0.009,-0.0056,-0.0055,-0.0049,-0.0039,0.0008,0.0017,-0.0021,0.0053,0.0062,0.0089,0.0085,0.0104,0.0107,0.0173,0.0173,0.0173,0.0113,0,0,0,0,0,0,-0.0126,-0.0123,-0.0129,-0.0097,-0.009,-0.008,-0.0055,-0.0048,-0.0037,-0.0034,0.0013,0.0022,0.0054,0.0084,0.0093,0.009,0.011,0.0173,0.0173,0.0173,0.0115,0.0111,0.0107,0,0,0,0,0,-0.0127,-0.0137,-0.013,-0.0127,-0.0098,-0.008,-0.0074,-0.0048,-0.0037,-0.0038,-0.0004,0.0021,0.0089,0.0087,0.0097,0.0095,0.0173,0.0173,0.0173,0.0117,0.0112,0.0107,0,0,0,0,0,0,-0.0152,-0.0133,-0.0124,-0.0128,-0.011,-0.0074,-0.0073,-0.0054,-0.0028,-0.0026,0.002,0.0031,0.0054,0.0082,0.0078,0.0115,0.0135,0.0137,0.0089,0.0085,0.0081,0.0071,0.0112,0,0,0,0,0,-0.0162,-0.0167,-0.0141,-0.0145,-0.0138,-0.0107,-0.0097,-0.0081,-0.0053,-0.0041,-0.0008,0.0029,0.0061,0.0078,0.011,0.0129,0.0161,0.0135,0.0131,0.0127,0.0126,0.0172,0.0172,0.0172,0.0172,0.0172,0,0,-0.0172,-0.0164,-0.0165,-0.0151,-0.0134,-0.0131,-0.01,-0.0092,-0.0086,-0.0035,-0.0019,0.0016,0.0063,0.0085,0.0098,0.0107,0.0142,0.0127,0.0123,0.0125,0.0172,0.0172,0.0172,0.0172,0.0172,0.0172,0,0,-0.0196,-0.0189,-0.0199,-0.0191,-0.0175,-0.0154,-0.0155,-0.0125,-0.0109,-0.009,-0.005,-0.002,0.0026,0.006,0.0084,0.0078,0.012,0.0087,0.0059,0.0103,0.0104,0.0105,0.0134,0.0138,0.0084,0.0084,0.0084,0,-0.0209,-0.022,-0.0199,-0.0208,-0.0207,-0.0169,-0.0179,-0.0156,-0.012,-0.0107,-0.0094,-0.002,0.0015,0.0053,0.0049,0.0069,0.0096,0.0071,0.0098,0.0099,0.0101,0.0131,0.0136,0.0081,0.0081,0.0082,0.0082,0,-0.0238,-0.0249,-0.0256,-0.0255,-0.025,-0.0254,-0.0223,-0.021,-0.0186,-0.0159,-0.0121,-0.0068,-0.0024,-0.0008,0.0018,0.0049,0.0064,0.0086,0.0107,0.0097,0.013,0.0136,0.0077,0.0078,0.0079,0.008,0,0,-0.0264,-0.0275,-0.028,-0.0291,-0.0279,-0.0278,-0.0268,-0.0245,-0.0237,-0.0194,-0.0175,-0.0117,-0.0085,-0.0056,-0.0014,0.0024,0.0054,0.0053,0.0057,0.0076,0.0142,0.0138,0.0145,0.0081,0.0082,0.0083,0.0156,0,-0.0294,-0.0331,-0.0322,-0.035,-0.0364,-0.0335,-0.0334,-0.0308,-0.0271,-0.0242,-0.0177,-0.0144,-0.0103,-0.0085,-0.004,0.0036,0.007,0.0032,0.0154,0.0158,0.015,0.0152,0.0086,0.0161,0.0162,0.0163,0.0164,0,-0.0325,-0.0348,-0.0388,-0.0406,-0.041,-0.0418,-0.0406,-0.0396,-0.0341,-0.0313,-0.0258,-0.0203,-0.0137,-0.0106,0.0018,-0.0008,0.0057,0.0114,0.0119,0.0142,0.0165,0.0177,0.0176,0.0175,0.0174,0.0174,0.0173,0,-0.036,-0.0391,-0.0428,-0.0437,-0.0449,-0.0458,-0.0457,-0.0421,-0.0413,-0.0352,-0.0336,-0.0243,-0.0197,-0.0098,0.0024,0.0021,0.0161,0.0174,0.023,0.0231,0.0239,0.0238,0.0253,0.0253,0.0253,0.0253,0.0253,0,-0.0393,-0.0422,-0.0452,-0.0474,-0.052,-0.0506,-0.053,-0.0509,-0.0474,-0.0465,-0.0377,-0.0341,-0.0192,-0.009,0.0014,0.0144,0.0157,0.0226,0.0252,0.0211,0.0205,0.0243,0.0241,0.0256,0.0255,0.0255,0.0254,0,-0.0419,-0.0439,-0.0487,-0.0522,-0.054,-0.057,-0.0591,-0.0595,-0.0557,-0.0537,-0.0522,-0.0406,-0.0273,-0.0122,0.0048,0.0126,0.0253,0.0293,0.0231,0.0252,0.0292,0.0286,0.0356,0.0357,0.0357,0.0357,0.0358,0,-0.0433,-0.0462,-0.0533,-0.0571,-0.0591,-0.0633,-0.0662,-0.0644,-0.0641,-0.0575,-0.0566,-0.0437,-0.0346,-0.0106,0.0047,0.0249,0.0275,0.033,0.0315,0.0285,0.0304,0.0297,0.0291,0.0358,0.0359,0.0359,0.0359,0,-0.0458,-0.0488,-0.0529,-0.0617,-0.0665,-0.0714,-0.0745,-0.0749,-0.0714,-0.0686,-0.059,-0.0455,-0.0302,-0.0111,0.0051,0.0193,0.029,0.0335,0.0334,0.0321,0.0289,0.0305,0.0299,0.036,0.036,0.036,0.036,0,-0.0473,-0.0514,-0.0577,-0.0647,-0.0717,-0.0764,-0.078,-0.0766,-0.0756,-0.0674,-0.0644,-0.0467,-0.036,-0.014,0.0008,0.0152,0.0181,0.0213,0.0219,0.0219,0.016,0.0099,0.0134,0,0,0,0,0,-0.0479,-0.0528,-0.06,-0.0676,-0.0744,-0.0784,-0.082,-0.0819,-0.0791,-0.0731,-0.0682,-0.0536,-0.0295,-0.0188,-0.0044,0.0006,0.0197,0.0175,0.0234,0.0369,0.0367,0.0321,0,0,0,0,0,0,-0.0485,-0.0554,-0.0598,-0.0682,-0.0736,-0.0804,-0.0829,-0.0813,-0.0771,-0.0722,-0.0592,-0.0516,-0.0281,-0.0374,-0.0044,-0.0,0.0052,0.0292,0.0295,0.0369,0.0368,0.0367,0.0318,0,0,0,0,0]}]]